Year,Month,Day,Hour,Minute,Value (Times are PST for temperature in C)
2013,03,24,00,00,1.90
2013,03,24,00,01,1.90
2013,03,24,00,02,1.90
2013,03,24,00,03,1.80
2013,03,24,00,04,1.80
2013,03,24,00,05,1.80
2013,03,24,00,06,1.80
2013,03,24,00,07,1.80
2013,03,24,00,08,1.70
2013,03,24,00,09,1.70
2013,03,24,00,10,1.70
2013,03,24,00,11,1.70
2013,03,24,00,12,1.70
2013,03,24,00,13,1.70
2013,03,24,00,14,1.60
2013,03,24,00,15,1.60
2013,03,24,00,16,1.60
2013,03,24,00,17,1.60
2013,03,24,00,18,1.60
2013,03,24,00,19,1.50
2013,03,24,00,20,1.50
2013,03,24,00,21,1.50
2013,03,24,00,22,1.50
2013,03,24,00,23,1.50
2013,03,24,00,24,1.50
2013,03,24,00,25,1.40
2013,03,24,00,26,1.40
2013,03,24,00,27,1.40
2013,03,24,00,28,1.40
2013,03,24,00,29,1.40
2013,03,24,00,30,1.40
2013,03,24,00,31,1.40
2013,03,24,00,32,1.30
2013,03,24,00,33,1.30
2013,03,24,00,34,1.30
2013,03,24,00,35,1.30
2013,03,24,00,36,1.30
2013,03,24,00,37,1.30
2013,03,24,00,38,1.20
2013,03,24,00,39,1.20
2013,03,24,00,40,1.20
2013,03,24,00,41,1.20
2013,03,24,00,42,1.20
2013,03,24,00,43,1.20
2013,03,24,00,44,1.10
2013,03,24,00,45,1.10
2013,03,24,00,46,1.10
2013,03,24,00,47,1.10
2013,03,24,00,48,1.10
2013,03,24,00,49,1.10
2013,03,24,00,50,1.10
2013,03,24,00,51,1.10
2013,03,24,00,52,1.00
2013,03,24,00,53,1.00
2013,03,24,00,54,1.00
2013,03,24,00,55,1.00
2013,03,24,00,56,1.00
2013,03,24,00,57,1.00
2013,03,24,00,58,0.90
2013,03,24,00,59,0.90
2013,03,24,01,00,0.90
2013,03,24,01,01,0.90
2013,03,24,01,02,0.90
2013,03,24,01,03,0.90
2013,03,24,01,04,0.90
2013,03,24,01,05,0.90
2013,03,24,01,06,0.90
2013,03,24,01,07,0.90
2013,03,24,01,08,0.90
2013,03,24,01,09,0.80
2013,03,24,01,10,0.80
2013,03,24,01,11,0.80
2013,03,24,01,12,0.80
2013,03,24,01,13,0.80
2013,03,24,01,14,0.80
2013,03,24,01,15,0.80
2013,03,24,01,16,0.80
2013,03,24,01,17,0.80
2013,03,24,01,18,0.80
2013,03,24,01,19,0.70
2013,03,24,01,20,0.70
2013,03,24,01,21,0.70
2013,03,24,01,22,0.70
2013,03,24,01,23,0.70
2013,03,24,01,24,0.70
2013,03,24,01,25,0.70
2013,03,24,01,26,0.70
2013,03,24,01,27,0.70
2013,03,24,01,28,0.70
2013,03,24,01,29,0.70
2013,03,24,01,30,0.70
2013,03,24,01,31,0.70
2013,03,24,01,32,0.70
2013,03,24,01,33,0.70
2013,03,24,01,34,0.70
2013,03,24,01,35,0.70
2013,03,24,01,36,0.70
2013,03,24,01,37,0.70
2013,03,24,01,38,0.70
2013,03,24,01,39,0.70
2013,03,24,01,40,0.70
2013,03,24,01,41,0.70
2013,03,24,01,42,0.70
2013,03,24,01,43,0.70
2013,03,24,01,44,0.70
2013,03,24,01,45,0.70
2013,03,24,01,46,0.70
2013,03,24,01,47,0.70
2013,03,24,01,48,0.70
2013,03,24,01,49,0.70
2013,03,24,01,50,0.70
2013,03,24,01,51,0.70
2013,03,24,01,52,0.70
2013,03,24,01,53,0.70
2013,03,24,01,54,0.70
2013,03,24,01,55,0.70
2013,03,24,01,56,0.80
2013,03,24,01,57,0.80
2013,03,24,01,58,0.80
2013,03,24,01,59,0.80
2013,03,24,02,00,0.80
2013,03,24,02,01,0.80
2013,03,24,02,02,0.80
2013,03,24,02,03,0.80
2013,03,24,02,04,0.80
2013,03,24,02,05,0.80
2013,03,24,02,06,0.80
2013,03,24,02,07,0.80
2013,03,24,02,08,0.80
2013,03,24,02,09,0.80
2013,03,24,02,10,0.80
2013,03,24,02,11,0.80
2013,03,24,02,12,0.80
2013,03,24,02,13,0.80
2013,03,24,02,14,0.80
2013,03,24,02,15,0.80
2013,03,24,02,16,0.80
2013,03,24,02,17,0.80
2013,03,24,02,18,0.80
2013,03,24,02,19,0.80
2013,03,24,02,20,0.80
2013,03,24,02,21,0.90
2013,03,24,02,22,0.90
2013,03,24,02,23,0.90
2013,03,24,02,24,0.90
2013,03,24,02,25,0.90
2013,03,24,02,26,0.90
2013,03,24,02,27,0.90
2013,03,24,02,28,0.90
2013,03,24,02,29,0.90
2013,03,24,02,30,1.00
2013,03,24,02,31,0.90
2013,03,24,02,32,1.00
2013,03,24,02,33,1.00
2013,03,24,02,34,1.00
2013,03,24,02,35,1.00
2013,03,24,02,36,1.00
2013,03,24,02,37,1.00
2013,03,24,02,38,1.00
2013,03,24,02,39,1.10
2013,03,24,02,40,1.10
2013,03,24,02,41,1.10
2013,03,24,02,42,1.10
2013,03,24,02,43,1.10
2013,03,24,02,44,1.10
2013,03,24,02,45,1.10
2013,03,24,02,46,1.10
2013,03,24,02,47,1.10
2013,03,24,02,48,1.10
2013,03,24,02,49,1.10
2013,03,24,02,50,1.10
2013,03,24,02,51,1.10
2013,03,24,02,52,1.10
2013,03,24,02,53,1.10
2013,03,24,02,54,1.20
2013,03,24,02,55,1.20
2013,03,24,02,56,1.20
2013,03,24,02,57,1.20
2013,03,24,02,58,1.20
2013,03,24,02,59,1.20
2013,03,24,03,00,1.20
2013,03,24,03,01,1.20
2013,03,24,03,02,1.20
2013,03,24,03,03,1.20
2013,03,24,03,06,1.20
2013,03,24,03,07,1.20
2013,03,24,03,08,1.30
2013,03,24,03,09,1.20
2013,03,24,03,10,1.30
2013,03,24,03,11,1.30
2013,03,24,03,12,1.30
2013,03,24,03,13,1.30
2013,03,24,03,14,1.30
2013,03,24,03,15,1.30
2013,03,24,03,16,1.30
2013,03,24,03,17,1.30
2013,03,24,03,18,1.30
2013,03,24,03,19,1.30
2013,03,24,03,20,1.30
2013,03,24,03,21,1.30
2013,03,24,03,22,1.30
2013,03,24,03,23,1.30
2013,03,24,03,24,1.30
2013,03,24,03,25,1.30
2013,03,24,03,26,1.30
2013,03,24,03,27,1.30
2013,03,24,03,28,1.30
2013,03,24,03,29,1.30
2013,03,24,03,30,1.30
2013,03,24,03,31,1.30
2013,03,24,03,32,1.30
2013,03,24,03,33,1.30
2013,03,24,03,34,1.30
2013,03,24,03,35,1.30
2013,03,24,03,36,1.30
2013,03,24,03,37,1.30
2013,03,24,03,38,1.30
2013,03,24,03,39,1.30
2013,03,24,03,40,1.30
2013,03,24,03,41,1.30
2013,03,24,03,42,1.30
2013,03,24,03,43,1.30
2013,03,24,03,44,1.30
2013,03,24,03,45,1.30
2013,03,24,03,46,1.30
2013,03,24,03,47,1.30
2013,03,24,03,48,1.30
2013,03,24,03,49,1.30
2013,03,24,03,50,1.30
2013,03,24,03,51,1.30
2013,03,24,03,52,1.30
2013,03,24,03,53,1.30
2013,03,24,03,54,1.30
2013,03,24,03,55,1.30
2013,03,24,03,56,1.30
2013,03,24,03,57,1.30
2013,03,24,03,58,1.30
2013,03,24,03,59,1.30
2013,03,24,04,00,1.30
2013,03,24,04,01,1.20
2013,03,24,04,02,1.20
2013,03,24,04,03,1.20
2013,03,24,04,04,1.20
2013,03,24,04,05,1.20
2013,03,24,04,06,1.20
2013,03,24,04,07,1.20
2013,03,24,04,08,1.20
2013,03,24,04,09,1.20
2013,03,24,04,10,1.20
2013,03,24,04,11,1.20
2013,03,24,04,12,1.20
2013,03,24,04,13,1.20
2013,03,24,04,14,1.20
2013,03,24,04,15,1.20
2013,03,24,04,16,1.10
2013,03,24,04,17,1.10
2013,03,24,04,18,1.10
2013,03,24,04,19,1.10
2013,03,24,04,20,1.10
2013,03,24,04,21,1.10
2013,03,24,04,22,1.10
2013,03,24,04,23,1.10
2013,03,24,04,24,1.10
2013,03,24,04,25,1.10
2013,03,24,04,26,1.10
2013,03,24,04,27,1.10
2013,03,24,04,28,1.10
2013,03,24,04,29,1.10
2013,03,24,04,30,1.10
2013,03,24,04,31,1.10
2013,03,24,04,32,1.10
2013,03,24,04,33,1.10
2013,03,24,04,34,1.10
2013,03,24,04,35,1.10
2013,03,24,04,36,1.10
2013,03,24,04,37,1.10
2013,03,24,04,38,1.20
2013,03,24,04,39,1.20
2013,03,24,04,40,1.20
2013,03,24,04,41,1.20
2013,03,24,04,42,1.20
2013,03,24,04,43,1.20
2013,03,24,04,44,1.20
2013,03,24,04,45,1.20
2013,03,24,04,46,1.20
2013,03,24,04,47,1.20
2013,03,24,04,48,1.20
2013,03,24,04,49,1.20
2013,03,24,04,50,1.20
2013,03,24,04,51,1.20
2013,03,24,04,52,1.20
2013,03,24,04,53,1.20
2013,03,24,04,54,1.20
2013,03,24,04,55,1.30
2013,03,24,04,56,1.30
2013,03,24,04,57,1.30
2013,03,24,04,58,1.30
2013,03,24,04,59,1.30
2013,03,24,05,00,1.30
2013,03,24,05,01,1.30
2013,03,24,05,02,1.30
2013,03,24,05,03,1.30
2013,03,24,05,04,1.30
2013,03,24,05,05,1.30
2013,03,24,05,06,1.30
2013,03,24,05,07,1.30
2013,03,24,05,08,1.30
2013,03,24,05,09,1.30
2013,03,24,05,10,1.30
2013,03,24,05,11,1.40
2013,03,24,05,12,1.40
2013,03,24,05,13,1.40
2013,03,24,05,14,1.40
2013,03,24,05,15,1.40
2013,03,24,05,16,1.40
2013,03,24,05,17,1.40
2013,03,24,05,18,1.40
2013,03,24,05,19,1.40
2013,03,24,05,20,1.40
2013,03,24,05,21,1.40
2013,03,24,05,22,1.40
2013,03,24,05,23,1.50
2013,03,24,05,24,1.50
2013,03,24,05,25,1.50
2013,03,24,05,26,1.50
2013,03,24,05,27,1.50
2013,03,24,05,28,1.50
2013,03,24,05,29,1.50
2013,03,24,05,30,1.60
2013,03,24,05,31,1.60
2013,03,24,05,32,1.60
2013,03,24,05,33,1.60
2013,03,24,05,34,1.60
2013,03,24,05,35,1.60
2013,03,24,05,36,1.70
2013,03,24,05,37,1.70
2013,03,24,05,38,1.70
2013,03,24,05,39,1.70
2013,03,24,05,40,1.70
2013,03,24,05,41,1.70
2013,03,24,05,42,1.70
2013,03,24,05,43,1.70
2013,03,24,05,44,1.70
2013,03,24,05,45,1.70
2013,03,24,05,46,1.70
2013,03,24,05,47,1.70
2013,03,24,05,48,1.70
2013,03,24,05,49,1.70
2013,03,24,05,50,1.70
2013,03,24,05,51,1.80
2013,03,24,05,52,1.80
2013,03,24,05,53,1.80
2013,03,24,05,54,1.80
2013,03,24,05,55,1.80
2013,03,24,05,56,1.80
2013,03,24,05,57,1.80
2013,03,24,05,58,1.80
2013,03,24,05,59,1.80
2013,03,24,06,00,1.80
2013,03,24,06,01,1.80
2013,03,24,06,02,1.80
2013,03,24,06,03,1.80
2013,03,24,06,04,1.90
2013,03,24,06,05,1.90
2013,03,24,06,06,1.90
2013,03,24,06,07,1.90
2013,03,24,06,08,1.90
2013,03,24,06,09,1.90
2013,03,24,06,10,1.90
2013,03,24,06,11,1.90
2013,03,24,06,12,1.90
2013,03,24,06,13,1.90
2013,03,24,06,14,1.90
2013,03,24,06,15,1.90
2013,03,24,06,16,1.90
2013,03,24,06,17,1.90
2013,03,24,06,18,1.90
2013,03,24,06,19,1.90
2013,03,24,06,20,1.90
2013,03,24,06,21,1.90
2013,03,24,06,22,1.90
2013,03,24,06,23,1.90
2013,03,24,06,24,1.90
2013,03,24,06,25,1.90
2013,03,24,06,26,2.00
2013,03,24,06,27,2.00
2013,03,24,06,28,1.90
2013,03,24,06,29,2.00
2013,03,24,06,30,2.00
2013,03,24,06,31,2.00
2013,03,24,06,32,2.00
2013,03,24,06,33,2.00
2013,03,24,06,34,2.00
2013,03,24,06,35,2.00
2013,03,24,06,36,2.00
2013,03,24,06,37,2.00
2013,03,24,06,38,2.10
2013,03,24,06,39,2.00
2013,03,24,06,40,2.10
2013,03,24,06,41,2.10
2013,03,24,06,42,2.10
2013,03,24,06,43,2.10
2013,03,24,06,44,2.10
2013,03,24,06,45,2.10
2013,03,24,06,46,2.10
2013,03,24,06,47,2.10
2013,03,24,06,48,2.10
2013,03,24,06,49,2.10
2013,03,24,06,50,2.10
2013,03,24,06,51,2.10
2013,03,24,06,52,2.10
2013,03,24,06,53,2.10
2013,03,24,06,54,2.10
2013,03,24,06,55,2.00
2013,03,24,06,56,2.00
2013,03,24,06,57,2.10
2013,03,24,06,58,2.00
2013,03,24,06,59,2.00
2013,03,24,07,00,2.00
2013,03,24,07,01,2.00
2013,03,24,07,02,2.00
2013,03,24,07,03,2.00
2013,03,24,07,04,2.00
2013,03,24,07,05,2.00
2013,03,24,07,06,2.00
2013,03,24,07,07,2.00
2013,03,24,07,08,2.00
2013,03,24,07,09,2.00
2013,03,24,07,10,2.00
2013,03,24,07,11,2.00
2013,03,24,07,12,2.00
2013,03,24,07,13,2.00
2013,03,24,07,14,2.00
2013,03,24,07,15,2.00
2013,03,24,07,16,2.00
2013,03,24,07,17,2.00
2013,03,24,07,18,2.00
2013,03,24,07,19,2.00
2013,03,24,07,20,2.00
2013,03,24,07,21,2.00
2013,03,24,07,22,2.00
2013,03,24,07,23,2.10
2013,03,24,07,24,2.10
2013,03,24,07,25,2.10
2013,03,24,07,26,2.10
2013,03,24,07,27,2.10
2013,03,24,07,28,2.10
2013,03,24,07,29,2.10
2013,03,24,07,30,2.10
2013,03,24,07,31,2.10
2013,03,24,07,32,2.10
2013,03,24,07,33,2.10
2013,03,24,07,34,2.10
2013,03,24,07,35,2.10
2013,03,24,07,36,2.10
2013,03,24,07,37,2.10
2013,03,24,07,38,2.10
2013,03,24,07,39,2.10
2013,03,24,07,40,2.10
2013,03,24,07,41,2.10
2013,03,24,07,42,2.10
2013,03,24,07,43,2.10
2013,03,24,07,44,2.10
2013,03,24,07,45,2.20
2013,03,24,07,46,2.20
2013,03,24,07,47,2.20
2013,03,24,07,48,2.20
2013,03,24,07,49,2.20
2013,03,24,07,50,2.20
2013,03,24,07,51,2.20
2013,03,24,07,52,2.30
2013,03,24,07,53,2.30
2013,03,24,07,54,2.30
2013,03,24,07,55,2.30
2013,03,24,07,56,2.30
2013,03,24,07,57,2.40
2013,03,24,07,58,2.40
2013,03,24,07,59,2.40
2013,03,24,08,00,2.40
2013,03,24,08,01,2.50
2013,03,24,08,02,2.50
2013,03,24,08,03,2.60
2013,03,24,08,04,2.60
2013,03,24,08,05,2.70
2013,03,24,08,06,2.70
2013,03,24,08,07,2.70
2013,03,24,08,08,2.80
2013,03,24,08,09,2.80
2013,03,24,08,10,2.80
2013,03,24,08,11,2.80
2013,03,24,08,12,2.90
2013,03,24,08,13,2.90
2013,03,24,08,14,2.90
2013,03,24,08,15,2.90
2013,03,24,08,16,3.00
2013,03,24,08,17,3.00
2013,03,24,08,18,3.00
2013,03,24,08,19,3.00
2013,03,24,08,20,3.10
2013,03,24,08,21,3.10
2013,03,24,08,22,3.10
2013,03,24,08,23,3.10
2013,03,24,08,24,3.10
2013,03,24,08,25,3.20
2013,03,24,08,26,3.20
2013,03,24,08,27,3.20
2013,03,24,08,28,3.20
2013,03,24,08,29,3.20
2013,03,24,08,30,3.20
2013,03,24,08,31,3.30
2013,03,24,08,32,3.30
2013,03,24,08,33,3.30
2013,03,24,08,34,3.30
2013,03,24,08,35,3.30
2013,03,24,08,36,3.30
2013,03,24,08,37,3.30
2013,03,24,08,38,3.40
2013,03,24,08,39,3.40
2013,03,24,08,40,3.40
2013,03,24,08,41,3.40
2013,03,24,08,42,3.40
2013,03,24,08,43,3.40
2013,03,24,08,44,3.40
2013,03,24,08,45,3.50
2013,03,24,08,46,3.50
2013,03,24,08,47,3.50
2013,03,24,08,48,3.50
2013,03,24,08,49,3.50
2013,03,24,08,50,3.50
2013,03,24,08,51,3.60
2013,03,24,08,52,3.60
2013,03,24,08,53,3.60
2013,03,24,08,54,3.60
2013,03,24,08,55,3.60
2013,03,24,08,56,3.60
2013,03,24,08,57,3.60
2013,03,24,08,58,3.60
2013,03,24,08,59,3.60
2013,03,24,09,00,3.60
2013,03,24,09,01,3.70
2013,03,24,09,02,3.70
2013,03,24,09,03,3.70
2013,03,24,09,04,3.70
2013,03,24,09,05,3.70
2013,03,24,09,06,3.70
2013,03,24,09,07,3.70
2013,03,24,09,08,3.70
2013,03,24,09,09,3.70
2013,03,24,09,10,3.70
2013,03,24,09,11,3.70
2013,03,24,09,12,3.70
2013,03,24,09,13,3.70
2013,03,24,09,14,3.70
2013,03,24,09,15,3.70
2013,03,24,09,16,3.80
2013,03,24,09,17,3.80
2013,03,24,09,18,3.80
2013,03,24,09,19,3.80
2013,03,24,09,20,3.80
2013,03,24,09,21,3.80
2013,03,24,09,22,3.80
2013,03,24,09,23,3.80
2013,03,24,09,24,3.80
2013,03,24,09,25,3.80
2013,03,24,09,26,3.80
2013,03,24,09,27,3.80
2013,03,24,09,28,3.90
2013,03,24,09,29,3.90
2013,03,24,09,30,3.90
2013,03,24,09,31,3.90
2013,03,24,09,32,3.90
2013,03,24,09,33,4.00
2013,03,24,09,34,4.00
2013,03,24,09,35,4.00
2013,03,24,09,36,4.10
2013,03,24,09,37,4.10
2013,03,24,09,38,4.10
2013,03,24,09,39,4.10
2013,03,24,09,40,4.20
2013,03,24,09,41,4.20
2013,03,24,09,42,4.20
2013,03,24,09,43,4.20
2013,03,24,09,44,4.20
2013,03,24,09,45,4.30
2013,03,24,09,46,4.30
2013,03,24,09,47,4.30
2013,03,24,09,48,4.30
2013,03,24,09,49,4.40
2013,03,24,09,50,4.40
2013,03,24,09,51,4.40
2013,03,24,09,52,4.40
2013,03,24,09,53,4.40
2013,03,24,09,54,4.40
2013,03,24,09,55,4.50
2013,03,24,09,56,4.50
2013,03,24,09,57,4.50
2013,03,24,09,58,4.60
2013,03,24,09,59,4.60
2013,03,24,10,00,4.60
2013,03,24,10,01,4.60
2013,03,24,10,02,4.60
2013,03,24,10,03,4.70
2013,03,24,10,04,4.70
2013,03,24,10,05,4.70
2013,03,24,10,06,4.70
2013,03,24,10,07,4.70
2013,03,24,10,08,4.80
2013,03,24,10,09,4.80
2013,03,24,10,10,4.80
2013,03,24,10,11,4.80
2013,03,24,10,12,4.80
2013,03,24,10,13,4.90
2013,03,24,10,14,4.90
2013,03,24,10,15,4.90
2013,03,24,10,16,4.90
2013,03,24,10,17,4.90
2013,03,24,10,18,4.90
2013,03,24,10,19,4.90
2013,03,24,10,20,4.90
2013,03,24,10,21,5.00
2013,03,24,10,22,5.00
2013,03,24,10,23,5.00
2013,03,24,10,24,5.00
2013,03,24,10,25,5.10
2013,03,24,10,26,5.10
2013,03,24,10,27,5.10
2013,03,24,10,28,5.10
2013,03,24,10,29,5.10
2013,03,24,10,30,5.10
2013,03,24,10,31,5.10
2013,03,24,10,32,5.10
2013,03,24,10,33,5.20
2013,03,24,10,34,5.20
2013,03,24,10,35,5.20
2013,03,24,10,36,5.20
2013,03,24,10,37,5.20
2013,03,24,10,38,5.20
2013,03,24,10,39,5.20
2013,03,24,10,40,5.20
2013,03,24,10,41,5.30
2013,03,24,10,42,5.30
2013,03,24,10,43,5.30
2013,03,24,10,44,5.30
2013,03,24,10,45,5.30
2013,03,24,10,46,5.30
2013,03,24,10,47,5.30
2013,03,24,10,48,5.30
2013,03,24,10,49,5.30
2013,03,24,10,50,5.40
2013,03,24,10,51,5.40
2013,03,24,10,52,5.40
2013,03,24,10,53,5.40
2013,03,24,10,54,5.40
2013,03,24,10,55,5.50
2013,03,24,10,56,5.50
2013,03,24,10,57,5.50
2013,03,24,10,58,5.60
2013,03,24,10,59,5.60
2013,03,24,11,00,5.60
2013,03,24,11,01,5.60
2013,03,24,11,02,5.60
2013,03,24,11,03,5.60
2013,03,24,11,04,5.60
2013,03,24,11,05,5.70
2013,03,24,11,06,5.70
2013,03,24,11,07,5.70
2013,03,24,11,08,5.60
2013,03,24,11,09,5.60
2013,03,24,11,10,5.60
2013,03,24,11,11,5.60
2013,03,24,11,12,5.60
2013,03,24,11,13,5.60
2013,03,24,11,14,5.70
2013,03,24,11,15,5.70
2013,03,24,11,16,5.70
2013,03,24,11,17,5.70
2013,03,24,11,18,5.70
2013,03,24,11,19,5.70
2013,03,24,11,20,5.70
2013,03,24,11,21,5.70
2013,03,24,11,22,5.70
2013,03,24,11,23,5.70
2013,03,24,11,24,5.80
2013,03,24,11,25,5.80
2013,03,24,11,26,5.80
2013,03,24,11,27,5.80
2013,03,24,11,28,5.80
2013,03,24,11,29,5.80
2013,03,24,11,30,5.80
2013,03,24,11,31,5.80
2013,03,24,11,32,5.80
2013,03,24,11,33,5.80
2013,03,24,11,34,5.80
2013,03,24,11,35,5.80
2013,03,24,11,36,5.80
2013,03,24,11,37,5.80
2013,03,24,11,38,5.80
2013,03,24,11,39,5.80
2013,03,24,11,40,5.80
2013,03,24,11,41,5.80
2013,03,24,11,42,5.80
2013,03,24,11,43,5.90
2013,03,24,11,44,5.90
2013,03,24,11,45,5.90
2013,03,24,11,46,5.90
2013,03,24,11,47,5.90
2013,03,24,11,48,6.00
2013,03,24,11,49,6.00
2013,03,24,11,50,6.00
2013,03,24,11,51,6.00
2013,03,24,11,52,6.00
2013,03,24,11,53,6.00
2013,03,24,11,54,6.00
2013,03,24,11,55,6.00
2013,03,24,11,56,6.00
2013,03,24,11,57,6.10
2013,03,24,11,58,6.10
2013,03,24,11,59,6.10
2013,03,24,12,00,6.10
2013,03,24,12,01,6.10
2013,03,24,12,02,6.10
2013,03,24,12,03,6.10
2013,03,24,12,04,6.10
2013,03,24,12,05,6.10
2013,03,24,12,06,6.10
2013,03,24,12,07,6.10
2013,03,24,12,08,6.10
2013,03,24,12,09,6.00
2013,03,24,12,10,6.10
2013,03,24,12,11,6.10
2013,03,24,12,12,6.10
2013,03,24,12,13,6.10
2013,03,24,12,14,6.10
2013,03,24,12,15,6.10
2013,03,24,12,16,6.10
2013,03,24,12,17,6.20
2013,03,24,12,18,6.20
2013,03,24,12,19,6.20
2013,03,24,12,20,6.20
2013,03,24,12,21,6.20
2013,03,24,12,22,6.20
2013,03,24,12,23,6.20
2013,03,24,12,24,6.20
2013,03,24,12,25,6.20
2013,03,24,12,26,6.20
2013,03,24,12,27,6.20
2013,03,24,12,28,6.20
2013,03,24,12,29,6.20
2013,03,24,12,30,6.20
2013,03,24,12,31,6.20
2013,03,24,12,32,6.30
2013,03,24,12,33,6.30
2013,03,24,12,34,6.30
2013,03,24,12,35,6.30
2013,03,24,12,36,6.30
2013,03,24,12,37,6.30
2013,03,24,12,38,6.30
2013,03,24,12,39,6.30
2013,03,24,12,40,6.30
2013,03,24,12,41,6.30
2013,03,24,12,42,6.30
2013,03,24,12,43,6.30
2013,03,24,12,44,6.30
2013,03,24,12,45,6.30
2013,03,24,12,46,6.30
2013,03,24,12,47,6.30
2013,03,24,12,48,6.40
2013,03,24,12,49,6.40
2013,03,24,12,50,6.40
2013,03,24,12,51,6.40
2013,03,24,12,52,6.40
2013,03,24,12,53,6.40
2013,03,24,12,54,6.40
2013,03,24,12,55,6.40
2013,03,24,12,56,6.40
2013,03,24,12,57,6.40
2013,03,24,12,58,6.50
2013,03,24,12,59,6.50
2013,03,24,13,00,6.60
2013,03,24,13,01,6.60
2013,03,24,13,02,6.60
2013,03,24,13,03,6.60
2013,03,24,13,04,6.60
2013,03,24,13,05,6.60
2013,03,24,13,06,6.60
2013,03,24,13,07,6.60
2013,03,24,13,08,6.60
2013,03,24,13,09,6.70
2013,03,24,13,10,6.70
2013,03,24,13,11,6.70
2013,03,24,13,12,6.70
2013,03,24,13,13,6.70
2013,03,24,13,14,6.70
2013,03,24,13,15,6.70
2013,03,24,13,16,6.70
2013,03,24,13,17,6.80
2013,03,24,13,18,6.80
2013,03,24,13,19,6.80
2013,03,24,13,20,6.80
2013,03,24,13,21,6.90
2013,03,24,13,22,6.90
2013,03,24,13,23,7.00
2013,03,24,13,24,7.00
2013,03,24,13,25,7.10
2013,03,24,13,26,7.10
2013,03,24,13,27,7.20
2013,03,24,13,28,7.20
2013,03,24,13,29,7.20
2013,03,24,13,30,7.20
2013,03,24,13,31,7.20
2013,03,24,13,32,7.30
2013,03,24,13,33,7.30
2013,03,24,13,34,7.30
2013,03,24,13,35,7.40
2013,03,24,13,36,7.30
2013,03,24,13,37,7.30
2013,03,24,13,38,7.30
2013,03,24,13,39,7.30
2013,03,24,13,40,7.40
2013,03,24,13,41,7.40
2013,03,24,13,42,7.40
2013,03,24,13,43,7.40
2013,03,24,13,44,7.40
2013,03,24,13,45,7.30
2013,03,24,13,46,7.30
2013,03,24,13,47,7.30
2013,03,24,13,48,7.30
2013,03,24,13,49,7.30
2013,03,24,13,50,7.30
2013,03,24,13,51,7.30
2013,03,24,13,52,7.40
2013,03,24,13,53,7.40
2013,03,24,13,54,7.40
2013,03,24,13,55,7.40
2013,03,24,13,56,7.40
2013,03,24,13,57,7.40
2013,03,24,13,58,7.40
2013,03,24,13,59,7.40
2013,03,24,14,00,7.40
2013,03,24,14,01,7.40
2013,03,24,14,02,7.40
2013,03,24,14,03,7.40
2013,03,24,14,04,7.40
2013,03,24,14,05,7.40
2013,03,24,14,06,7.40
2013,03,24,14,07,7.40
2013,03,24,14,08,7.50
2013,03,24,14,09,7.50
2013,03,24,14,10,7.60
2013,03,24,14,11,7.60
2013,03,24,14,12,7.60
2013,03,24,14,13,7.60
2013,03,24,14,14,7.70
2013,03,24,14,15,7.70
2013,03,24,14,16,7.70
2013,03,24,14,17,7.70
2013,03,24,14,18,7.80
2013,03,24,14,19,7.80
2013,03,24,14,20,7.80
2013,03,24,14,21,7.90
2013,03,24,14,22,7.90
2013,03,24,14,23,7.90
2013,03,24,14,24,7.90
2013,03,24,14,25,7.90
2013,03,24,14,26,7.90
2013,03,24,14,27,8.00
2013,03,24,14,28,8.00
2013,03,24,14,29,8.00
2013,03,24,14,30,8.10
2013,03,24,14,31,8.10
2013,03,24,14,32,8.20
2013,03,24,14,33,8.20
2013,03,24,14,34,8.20
2013,03,24,14,35,8.30
2013,03,24,14,36,8.30
2013,03,24,14,37,8.30
2013,03,24,14,38,8.30
2013,03,24,14,39,8.40
2013,03,24,14,40,8.40
2013,03,24,14,41,8.40
2013,03,24,14,42,8.30
2013,03,24,14,43,8.30
2013,03,24,14,44,8.30
2013,03,24,14,45,8.30
2013,03,24,14,46,8.20
2013,03,24,14,47,8.20
2013,03,24,14,48,8.20
2013,03,24,14,49,8.20
2013,03,24,14,50,8.20
2013,03,24,14,51,8.20
2013,03,24,14,52,8.20
2013,03,24,14,53,8.20
2013,03,24,14,54,8.20
2013,03,24,14,55,8.30
2013,03,24,14,56,8.30
2013,03,24,14,57,8.30
2013,03,24,14,58,8.30
2013,03,24,14,59,8.30
2013,03,24,15,00,8.30
2013,03,24,15,01,8.30
2013,03,24,15,02,8.40
2013,03,24,15,03,8.40
2013,03,24,15,04,8.40
2013,03,24,15,05,8.40
2013,03,24,15,06,8.50
2013,03,24,15,07,8.60
2013,03,24,15,08,8.60
2013,03,24,15,09,8.60
2013,03,24,15,10,8.60
2013,03,24,15,11,8.60
2013,03,24,15,12,8.60
2013,03,24,15,13,8.60
2013,03,24,15,14,8.60
2013,03,24,15,15,8.60
2013,03,24,15,16,8.60
2013,03,24,15,17,8.60
2013,03,24,15,18,8.60
2013,03,24,15,19,8.60
2013,03,24,15,20,8.60
2013,03,24,15,21,8.60
2013,03,24,15,22,8.60
2013,03,24,15,23,8.60
2013,03,24,15,24,8.60
2013,03,24,15,25,8.70
2013,03,24,15,26,8.70
2013,03,24,15,27,8.70
2013,03,24,15,28,8.70
2013,03,24,15,29,8.70
2013,03,24,15,30,8.70
2013,03,24,15,31,8.70
2013,03,24,15,32,8.70
2013,03,24,15,33,8.80
2013,03,24,15,34,8.80
2013,03,24,15,35,8.80
2013,03,24,15,36,8.90
2013,03,24,15,37,8.90
2013,03,24,15,38,9.00
2013,03,24,15,39,9.00
2013,03,24,15,40,9.00
2013,03,24,15,41,9.00
2013,03,24,15,42,9.00
2013,03,24,15,43,8.90
2013,03,24,15,44,8.90
2013,03,24,15,45,8.90
2013,03,24,15,46,8.80
2013,03,24,15,47,8.80
2013,03,24,15,48,8.80
2013,03,24,15,49,8.80
2013,03,24,15,50,8.80
2013,03,24,15,51,8.80
2013,03,24,15,52,8.80
2013,03,24,15,53,8.80
2013,03,24,15,54,8.80
2013,03,24,15,55,8.80
2013,03,24,15,56,8.80
2013,03,24,15,57,8.80
2013,03,24,15,58,8.80
2013,03,24,15,59,8.80
2013,03,24,16,00,8.80
2013,03,24,16,01,8.90
2013,03,24,16,02,9.00
2013,03,24,16,03,9.00
2013,03,24,16,04,9.00
2013,03,24,16,05,9.10
2013,03,24,16,06,9.10
2013,03,24,16,07,9.10
2013,03,24,16,08,9.10
2013,03,24,16,09,9.10
2013,03,24,16,10,9.20
2013,03,24,16,11,9.20
2013,03,24,16,12,9.30
2013,03,24,16,13,9.30
2013,03,24,16,14,9.40
2013,03,24,16,15,9.40
2013,03,24,16,16,9.40
2013,03,24,16,17,9.40
2013,03,24,16,18,9.30
2013,03,24,16,19,9.30
2013,03,24,16,20,9.40
2013,03,24,16,21,9.40
2013,03,24,16,22,9.50
2013,03,24,16,23,9.50
2013,03,24,16,24,9.50
2013,03,24,16,25,9.50
2013,03,24,16,26,9.50
2013,03,24,16,27,9.50
2013,03,24,16,28,9.50
2013,03,24,16,29,9.50
2013,03,24,16,30,9.50
2013,03,24,16,31,9.50
2013,03,24,16,32,9.50
2013,03,24,16,33,9.60
2013,03,24,16,34,9.60
2013,03,24,16,35,9.60
2013,03,24,16,36,9.60
2013,03,24,16,37,9.60
2013,03,24,16,38,9.60
2013,03,24,16,39,9.50
2013,03,24,16,40,9.40
2013,03,24,16,41,9.40
2013,03,24,16,42,9.40
2013,03,24,16,43,9.30
2013,03,24,16,44,9.30
2013,03,24,16,45,9.20
2013,03,24,16,46,9.20
2013,03,24,16,47,9.20
2013,03,24,16,48,9.20
2013,03,24,16,49,9.10
2013,03,24,16,50,9.10
2013,03,24,16,51,9.10
2013,03,24,16,52,9.10
2013,03,24,16,53,9.10
2013,03,24,16,54,9.00
2013,03,24,16,55,9.00
2013,03,24,16,56,9.00
2013,03,24,16,57,9.00
2013,03,24,16,58,9.00
2013,03,24,16,59,9.10
2013,03,24,17,00,9.10
2013,03,24,17,01,9.20
2013,03,24,17,02,9.20
2013,03,24,17,03,9.20
2013,03,24,17,04,9.20
2013,03,24,17,05,9.10
2013,03,24,17,06,9.20
2013,03,24,17,07,9.20
2013,03,24,17,08,9.20
2013,03,24,17,09,9.20
2013,03,24,17,10,9.20
2013,03,24,17,11,9.20
2013,03,24,17,12,9.10
2013,03,24,17,13,9.10
2013,03,24,17,14,9.10
2013,03,24,17,15,9.10
2013,03,24,17,16,9.10
2013,03,24,17,17,9.10
2013,03,24,17,18,9.10
2013,03,24,17,19,9.10
2013,03,24,17,20,9.10
2013,03,24,17,21,9.10
2013,03,24,17,22,9.10
2013,03,24,17,23,9.10
2013,03,24,17,24,9.10
2013,03,24,17,25,9.10
2013,03,24,17,26,9.10
2013,03,24,17,27,9.10
2013,03,24,17,28,9.10
2013,03,24,17,29,9.10
2013,03,24,17,30,9.10
2013,03,24,17,31,9.10
2013,03,24,17,32,9.10
2013,03,24,17,33,9.10
2013,03,24,17,34,9.10
2013,03,24,17,35,9.10
2013,03,24,17,36,9.10
2013,03,24,17,37,9.10
2013,03,24,17,38,9.10
2013,03,24,17,39,9.20
2013,03,24,17,40,9.20
2013,03,24,17,41,9.20
2013,03,24,17,42,9.20
2013,03,24,17,43,9.20
2013,03,24,17,44,9.20
2013,03,24,17,45,9.20
2013,03,24,17,46,9.20
2013,03,24,17,47,9.20
2013,03,24,17,48,9.10
2013,03,24,17,49,9.10
2013,03,24,17,50,9.10
2013,03,24,17,51,9.10
2013,03,24,17,52,9.10
2013,03,24,17,53,9.10
2013,03,24,17,54,9.10
2013,03,24,17,55,9.10
2013,03,24,17,56,9.10
2013,03,24,17,57,9.10
2013,03,24,17,58,9.10
2013,03,24,17,59,9.10
2013,03,24,18,00,9.10
2013,03,24,18,01,9.10
2013,03,24,18,02,9.10
2013,03,24,18,03,9.10
2013,03,24,18,04,9.10
2013,03,24,18,05,9.10
2013,03,24,18,06,9.20
2013,03,24,18,07,9.20
2013,03,24,18,08,9.20